{"data":{"norad_id":66049,"intl_designator":"2025-233S","name":"QIANFAN-107","alt_names":[],"object_type":"PAYLOAD","status":"ACTIVE","operator":null,"country":"PRC","launch_date":"2025-10-17","launch_site_code":"TAISC","launch_vehicle":null,"mission":null,"orbit_class":"UNKNOWN","rcs_meters":null,"size_class":null,"mass_kg":null,"dimensions":null,"purposes":[],"wikipedia_slug":null,"has_3d_model":false,"image_url":null,"decayed_at":null,"tle_current":{"epoch":"2026-05-25T03:58:22.154016Z","epoch_age_seconds":70921,"freshness":"FRESH","line1":"1 66049U 25233S   26145.16553419  .00000133  00000+0  18808-3 0  9996","line2":"2 66049  89.0029  45.5109 0002140  70.4110 289.7272 13.51005793 30081","mean_motion":13.51005793,"eccentricity":0.000214,"inclination_deg":89.0029,"raan_deg":45.5109,"arg_perigee_deg":70.411,"mean_anomaly_deg":289.7272,"bstar":0.00018808,"rev_number":3008,"period_min":106.58725576612,"perigee_km":1066.9667047366,"apogee_km":1070.1538911802,"semimajor_km":7446.6972979584,"source":"CELESTRAK","updated_at":"2026-05-25T13:38:05.923755Z"}}}